Hourly Data Report for June 05, 2002

SHERBROOKE A
QUEBEC

45°26'00.000" N
71°41'00.000" W
241.40 m
7028124
71610
YSC

Download Data

Hourly Data (June 2002)
Hourly Data Report for June 5, 2002
TIME
LST
Temp Definition
°C
Dew Point Definition
°C
Rel Hum Definition
%
Precip. Amount Definition
mm

Wind Dir Definition
10's deg

Wind Spd Definition
km/h
Visibility Definition
km
Stn Press Definition
kPa
Hmdx Definition


Wind Chill Definition


Weather Definition


00:00 15.1 7.5 60   15 11 15.0 98.63      
01:00 14.6 7.9 64   15 7 15.0 98.56      
02:00 13.9 9.5 75   17 13 15.0 98.49     Rain
03:00 12.5 11.1 91   10 7 12.9 98.37     Rain
04:00 11.8 11.1 95   12 6 9.7 98.33     Drizzle
05:00 12.5 11.3 92   16 7 15.0 98.29      
06:00 12.5 11.5 94   17 7 4.0 98.27     Rain
07:00 13.0 12.0 94   14 6 9.7 98.21     Fog
08:00 14.0 12.5 91   18 6 16.1 98.17     Cloudy
09:00 14.7 13.3 91   19 6 9.7 98.13     Rain, Fog
10:00 17.1 14.8 86   20 7 16.1 98.07     Cloudy
11:00 19.1 15.8 81   19 7 19.3 98.00     Cloudy
12:00 20.0 15.5 75   21 20 16.1 97.96     Rain Showers
13:00 19.4 16.1 81   21 15 16.1 97.96     Rain Showers
14:00 18.7 16.4 86   20 13 9.7 97.93     Rain Showers, Fog
15:00 18.8 16.7 88   21 7 19.3 97.88     Cloudy
16:00 18.5 17.0 91   22 4 9.7 97.84     Rain Showers, Fog
17:00 18.8 18.0 95   23 9 2.6 97.81     Moderate Rain
18:00 18.7 18.1 96   31 11 2.4 97.87     Moderate Rain
19:00 16.3 15.4 94   29 9 9.7 97.92      
20:00 14.2 13.1 93   30 9 15.0 97.98      
21:00 13.5 12.4 93   29 4 15.0 98.08      
22:00 12.8 11.9 94   26 6 15.0 98.15      
23:00 11.9 10.7 92   33 6 15.0 98.18      

Notes on Data Quality.

Legend

  • E = Estimated
  • M = Missing
  • NA = Not Available*
  • [empty] = Indicates an unobserved value
Date modified: